Time,TemperatureF,DewpointF,PressureIn,WindDirection,WindDirectionDegrees,WindSpeedMPH,WindSpeedGustMPH,Humidity,HourlyPrecipIn,Conditions,Clouds,dailyrainin,SolarRadiationWatts/m^2,SoftwareType,DateUTC
2013-02-10 00:00:00,63.7,57.4,30.20,NE,48,1.5,9.2,80,0.00,CLR,,0.00,0.0,WeatherDisplay:10.37,2013-02-10 05:00:00,
2013-02-10 00:05:00,63.6,57.3,30.20,NE,49,0.9,3.0,80,0.00,,,0.00,0.0,WeatherDisplay:10.37,2013-02-10 05:05:00,
2013-02-10 00:10:00,63.6,57.7,30.20,ENE,71,1.5,3.5,81,0.00,,,0.00,0.0,WeatherDisplay:10.37,2013-02-10 05:10:00,
2013-02-10 00:15:00,63.6,57.7,30.20,ENE,72,1.8,3.5,81,0.00,,,0.00,0.0,WeatherDisplay:10.37,2013-02-10 05:15:00,
2013-02-10 00:20:00,63.6,57.7,30.20,NE,54,1.7,4.6,81,0.00,,,0.00,0.0,WeatherDisplay:10.37,2013-02-10 05:20:00,
2013-02-10 00:25:00,63.5,57.6,30.20,East,82,2.6,5.8,81,0.00,,,0.00,0.0,WeatherDisplay:10.37,2013-02-10 05:25:00,
2013-02-10 00:30:00,63.3,57.7,30.20,ENE,71,1.2,2.3,82,0.00,,,0.00,0.0,WeatherDisplay:10.37,2013-02-10 05:30:00,
2013-02-10 00:35:00,63.2,57.6,30.20,East,101,2.0,4.6,82,0.00,,,0.00,0.0,WeatherDisplay:10.37,2013-02-10 05:35:00,
2013-02-10 00:40:00,63.1,57.5,30.20,ENE,66,2.5,6.9,82,0.00,,,0.00,0.0,WeatherDisplay:10.37,2013-02-10 05:40:00,
2013-02-10 00:45:00,62.9,57.3,30.19,NE,38,2.8,5.8,82,0.00,,,0.00,0.0,WeatherDisplay:10.37,2013-02-10 05:45:00,
2013-02-10 00:50:00,62.9,57.7,30.19,ENE,59,1.3,3.5,83,0.00,,,0.00,0.0,WeatherDisplay:10.37,2013-02-10 05:50:00,
2013-02-10 00:55:00,62.8,57.6,30.19,North,360,3.2,4.6,83,0.00,,,0.00,0.0,WeatherDisplay:10.37,2013-02-10 05:55:00,
2013-02-10 01:00:00,62.8,57.6,30.19,NNE,33,3.5,6.9,83,0.00,,,0.00,0.0,WeatherDisplay:10.37,2013-02-10 06:00:00,
2013-02-10 01:05:00,62.7,57.5,30.19,ENE,67,2.0,5.8,83,0.00,,,0.00,0.0,WeatherDisplay:10.37,2013-02-10 06:05:00,
2013-02-10 01:10:00,62.7,57.5,30.19,NE,51,2.3,5.8,83,0.00,,,0.00,0.0,WeatherDisplay:10.37,2013-02-10 06:10:00,
2013-02-10 01:15:00,62.6,57.4,30.19,ENE,76,4.0,6.0,83,0.00,,,0.00,0.0,WeatherDisplay:10.37,2013-02-10 06:15:00,
2013-02-10 01:20:00,62.5,57.6,30.19,ENE,76,1.3,3.5,84,0.00,,,0.00,0.0,WeatherDisplay:10.37,2013-02-10 06:20:00,
2013-02-10 01:25:00,62.4,57.5,30.19,East,81,3.0,6.9,84,0.00,,,0.00,0.0,WeatherDisplay:10.37,2013-02-10 06:25:00,
2013-02-10 01:30:00,62.4,57.5,30.19,ENE,63,1.6,4.6,84,0.00,,,0.00,0.0,WeatherDisplay:10.37,2013-02-10 06:30:00,
2013-02-10 01:35:00,62.3,57.7,30.19,NNE,30,1.4,3.5,85,0.00,,,0.00,0.0,WeatherDisplay:10.37,2013-02-10 06:35:00,
2013-02-10 01:40:00,62.3,57.7,30.19,NE,37,1.3,3.5,85,0.00,,,0.00,0.0,WeatherDisplay:10.37,2013-02-10 06:40:00,
2013-02-10 01:45:00,62.2,57.6,30.19,ENE,57,1.7,4.6,85,0.00,,,0.00,0.0,WeatherDisplay:10.37,2013-02-10 06:45:00,
2013-02-10 01:50:00,62.2,57.6,30.19,NNE,26,2.9,5.8,85,0.00,,,0.00,0.0,WeatherDisplay:10.37,2013-02-10 06:50:00,
2013-02-10 01:55:00,62.2,58.0,30.19,East,98,1.8,5.8,86,0.00,,,0.00,0.0,WeatherDisplay:10.37,2013-02-10 06:55:00,
2013-02-10 02:00:00,62.2,58.0,30.19,NE,55,2.0,4.6,86,0.00,,,0.00,0.0,WeatherDisplay:10.37,2013-02-10 07:00:00,
2013-02-10 02:05:00,62.1,57.9,30.19,ESE,104,3.3,4.6,86,0.00,,,0.00,0.0,WeatherDisplay:10.37,2013-02-10 07:05:00,
2013-02-10 02:10:00,62.2,58.3,30.19,East,86,3.7,5.8,87,0.00,,,0.00,0.0,WeatherDisplay:10.37,2013-02-10 07:10:00,
2013-02-10 02:15:00,62.3,58.4,30.18,NNE,31,0.6,4.0,87,0.00,,,0.00,0.0,WeatherDisplay:10.37,2013-02-10 07:15:00,
2013-02-10 02:20:00,62.3,58.4,30.18,SE,127,0.6,4.6,87,0.00,,,0.00,0.0,WeatherDisplay:10.37,2013-02-10 07:20:00,
2013-02-10 02:25:00,62.4,58.5,30.18,NE,38,2.8,2.8,87,0.00,,,0.00,0.0,WeatherDisplay:10.37,2013-02-10 07:25:00,
2013-02-10 02:30:00,62.5,58.6,30.18,NE,36,5.7,6.9,87,0.00,,,0.00,0.0,WeatherDisplay:10.37,2013-02-10 07:30:00,
2013-02-10 02:35:00,62.4,58.5,30.18,East,97,2.9,4.6,87,0.00,,,0.00,0.0,WeatherDisplay:10.37,2013-02-10 07:35:00,
2013-02-10 02:48:00,62.3,58.7,30.18,NE,53,0.6,2.0,88,0.00,,,0.00,0.0,WeatherDisplay:10.37,2013-02-10 07:48:00,
2013-02-10 02:53:00,62.3,58.7,30.18,ESE,120,3.5,4.6,88,0.00,,,0.00,0.0,WeatherDisplay:10.37,2013-02-10 07:53:00,
2013-02-10 02:58:00,62.3,58.7,30.18,NE,39,0.1,4.6,88,0.00,,,0.00,0.0,WeatherDisplay:10.37,2013-02-10 07:58:00,
2013-02-10 03:03:00,62.3,59.0,30.17,NE,40,1.2,3.5,89,0.00,,,0.00,0.0,WeatherDisplay:10.37,2013-02-10 08:03:00,
2013-02-10 03:08:00,62.3,59.0,30.17,ENE,74,0.8,3.5,89,0.00,,,0.00,0.0,WeatherDisplay:10.37,2013-02-10 08:08:00,
2013-02-10 03:17:00,62.4,59.1,30.18,NE,54,0.0,9.2,89,0.00,CLR,,0.00,0.0,WeatherDisplay:10.37,2013-02-10 08:17:00,
2013-02-10 03:22:00,62.4,59.1,30.18,SE,130,2.4,5.8,89,0.00,,,0.00,0.0,WeatherDisplay:10.37,2013-02-10 08:22:00,
2013-02-10 03:27:00,62.5,59.2,30.18,ENE,58,2.5,5.8,89,0.00,,,0.00,0.0,WeatherDisplay:10.37,2013-02-10 08:27:00,
2013-02-10 03:32:00,62.5,59.2,30.18,East,82,2.6,5.8,89,0.00,,,0.00,0.0,WeatherDisplay:10.37,2013-02-10 08:32:00,
2013-02-10 03:37:00,62.5,59.2,30.18,ENE,78,1.4,2.3,89,0.00,,,0.00,0.0,WeatherDisplay:10.37,2013-02-10 08:37:00,
2013-02-10 03:42:00,62.6,59.6,30.18,SSE,147,1.1,3.5,90,0.00,,,0.00,0.0,WeatherDisplay:10.37,2013-02-10 08:42:00,
2013-02-10 03:47:00,62.6,59.3,30.18,East,100,0.6,3.5,89,0.00,,,0.00,0.0,WeatherDisplay:10.37,2013-02-10 08:47:00,
2013-02-10 03:52:00,62.5,59.5,30.18,East,97,0.9,3.5,90,0.00,,,0.00,0.0,WeatherDisplay:10.37,2013-02-10 08:52:00,
2013-02-10 03:57:00,62.6,59.6,30.18,ENE,78,1.9,8.1,90,0.00,,,0.00,0.0,WeatherDisplay:10.37,2013-02-10 08:57:00,
2013-02-10 04:02:00,62.6,59.6,30.18,SE,126,1.7,9.2,90,0.00,,,0.00,0.0,WeatherDisplay:10.37,2013-02-10 09:02:00,
2013-02-10 04:07:00,62.7,59.7,30.18,ENE,63,1.9,6.0,90,0.00,,,0.00,0.0,WeatherDisplay:10.37,2013-02-10 09:07:00,
2013-02-10 04:12:00,62.7,59.7,30.18,NNE,28,2.2,9.2,90,0.00,,,0.00,0.0,WeatherDisplay:10.37,2013-02-10 09:12:00,
2013-02-10 04:17:00,62.7,59.7,30.18,NE,50,1.4,4.0,90,0.00,,,0.00,0.0,WeatherDisplay:10.37,2013-02-10 09:17:00,
2013-02-10 04:22:00,62.6,59.6,30.18,East,87,0.2,9.2,90,0.00,,,0.00,0.0,WeatherDisplay:10.37,2013-02-10 09:22:00,
2013-02-10 04:27:00,62.5,59.5,30.18,NE,34,0.1,3.5,90,0.00,,,0.00,0.0,WeatherDisplay:10.37,2013-02-10 09:27:00,
2013-02-10 04:32:00,62.4,59.4,30.18,ENE,73,0.6,4.6,90,0.00,,,0.00,0.0,WeatherDisplay:10.37,2013-02-10 09:32:00,
2013-02-10 04:37:00,62.4,59.4,30.18,ENE,77,1.3,3.5,90,0.00,,,0.00,0.0,WeatherDisplay:10.37,2013-02-10 09:37:00,
2013-02-10 04:42:00,62.4,59.4,30.18,ESE,109,1.9,5.8,90,0.00,,,0.00,0.0,WeatherDisplay:10.37,2013-02-10 09:42:00,
2013-02-10 04:47:00,62.4,59.4,30.18,NNE,33,1.5,3.5,90,0.00,,,0.00,0.0,WeatherDisplay:10.37,2013-02-10 09:47:00,
2013-02-10 04:52:00,62.4,59.7,30.18,ESE,118,2.1,6.9,91,0.00,,,0.00,0.0,WeatherDisplay:10.37,2013-02-10 09:52:00,
2013-02-10 04:57:00,62.4,59.4,30.18,ESE,109,2.6,5.0,90,0.00,,,0.00,0.0,WeatherDisplay:10.37,2013-02-10 09:57:00,
2013-02-10 05:02:00,62.4,59.7,30.18,NE,53,1.4,4.6,91,0.00,,,0.00,0.0,WeatherDisplay:10.37,2013-02-10 10:02:00,
2013-02-10 05:07:00,62.4,59.7,30.18,ENE,76,3.6,3.6,91,0.00,,,0.00,0.0,WeatherDisplay:10.37,2013-02-10 10:07:00,
2013-02-10 05:12:00,62.4,59.7,30.18,ENE,72,3.9,6.0,91,0.00,,,0.00,0.0,WeatherDisplay:10.37,2013-02-10 10:12:00,
2013-02-10 05:17:00,62.5,59.8,30.18,ENE,63,3.1,3.5,91,0.00,,,0.00,0.0,WeatherDisplay:10.37,2013-02-10 10:17:00,
2013-02-10 05:23:00,62.4,59.7,30.18,NE,47,2.5,8.1,91,0.00,,,0.00,0.0,WeatherDisplay:10.37,2013-02-10 10:23:00,
2013-02-10 05:28:00,62.5,59.8,30.18,NE,45,0.8,6.9,91,0.00,,,0.00,0.0,WeatherDisplay:10.37,2013-02-10 10:28:00,
2013-02-10 05:33:00,62.5,59.8,30.18,ESE,111,1.0,6.9,91,0.00,,,0.00,0.0,WeatherDisplay:10.37,2013-02-10 10:33:00,
2013-02-10 05:38:00,62.5,59.8,30.18,ESE,104,3.0,5.8,91,0.00,,,0.00,0.0,WeatherDisplay:10.37,2013-02-10 10:38:00,
2013-02-10 05:43:00,62.5,59.8,30.18,East,86,1.2,2.3,91,0.00,,,0.00,0.0,WeatherDisplay:10.37,2013-02-10 10:43:00,
2013-02-10 05:48:00,62.5,59.8,30.18,NW,313,2.0,4.6,91,0.00,,,0.00,0.0,WeatherDisplay:10.37,2013-02-10 10:48:00,
2013-02-10 05:53:00,62.5,59.8,30.18,ENE,63,1.1,3.5,91,0.00,,,0.00,0.0,WeatherDisplay:10.37,2013-02-10 10:53:00,
2013-02-10 05:58:00,62.5,59.8,30.18,ENE,66,1.9,5.8,91,0.00,,,0.00,0.0,WeatherDisplay:10.37,2013-02-10 10:58:00,
2013-02-10 06:03:00,62.5,59.8,30.18,ESE,104,0.3,5.8,91,0.00,,,0.00,0.0,WeatherDisplay:10.37,2013-02-10 11:03:00,
2013-02-10 06:08:00,62.5,59.8,30.18,East,86,2.7,3.5,91,0.00,,,0.00,0.0,WeatherDisplay:10.37,2013-02-10 11:08:00,
2013-02-10 06:13:00,62.4,59.7,30.18,ESE,112,0.7,6.9,91,0.00,,,0.00,0.0,WeatherDisplay:10.37,2013-02-10 11:13:00,
2013-02-10 06:18:00,62.5,59.8,30.18,East,98,1.2,3.5,91,0.00,,,0.00,0.0,WeatherDisplay:10.37,2013-02-10 11:18:00,
2013-02-10 06:23:00,62.6,59.9,30.19,ESE,120,1.9,4.6,91,0.00,,,0.00,0.0,WeatherDisplay:10.37,2013-02-10 11:23:00,
2013-02-10 06:28:00,62.6,59.9,30.19,ENE,78,2.0,4.6,91,0.00,,,0.00,0.0,WeatherDisplay:10.37,2013-02-10 11:28:00,
2013-02-10 06:33:00,62.6,59.9,30.19,SSE,155,0.6,3.5,91,0.00,,,0.00,0.0,WeatherDisplay:10.37,2013-02-10 11:33:00,
2013-02-10 06:38:00,62.6,59.9,30.19,ESE,103,4.2,6.9,91,0.00,,,0.00,0.0,WeatherDisplay:10.37,2013-02-10 11:38:00,
2013-02-10 06:43:00,62.7,60.0,30.20,SE,130,0.3,2.0,91,0.00,,,0.00,0.0,WeatherDisplay:10.37,2013-02-10 11:43:00,
2013-02-10 06:48:00,62.6,59.9,30.20,NNE,23,1.1,3.5,91,0.00,,,0.00,0.0,WeatherDisplay:10.37,2013-02-10 11:48:00,
2013-02-10 06:53:00,62.5,59.8,30.20,South,183,0.2,0.0,91,0.00,,,0.00,0.0,WeatherDisplay:10.37,2013-02-10 11:53:00,
2013-02-10 06:58:00,62.5,59.8,30.21,NE,49,1.8,3.5,91,0.00,,,0.00,0.0,WeatherDisplay:10.37,2013-02-10 11:58:00,
2013-02-10 07:03:00,62.5,59.8,30.21,SE,125,1.4,3.5,91,0.00,,,0.00,0.0,WeatherDisplay:10.37,2013-02-10 12:03:00,
2013-02-10 07:08:00,62.5,59.8,30.21,ESE,113,0.2,1.1,91,0.00,,,0.00,0.0,WeatherDisplay:10.37,2013-02-10 12:08:00,
2013-02-10 07:13:00,62.6,59.9,30.21,ESE,121,2.3,4.6,91,0.00,,,0.00,0.0,WeatherDisplay:10.37,2013-02-10 12:13:00,
2013-02-10 07:18:00,62.8,60.1,30.21,ESE,113,0.0,1.0,91,0.00,,,0.00,5.0,WeatherDisplay:10.37,2013-02-10 12:18:00,
2013-02-10 07:23:00,62.9,60.2,30.22,SSE,161,0.9,2.3,91,0.00,,,0.00,9.0,WeatherDisplay:10.37,2013-02-10 12:23:00,
2013-02-10 07:28:00,63.0,60.3,30.22,ENE,68,1.4,3.5,91,0.00,,,0.00,12.0,WeatherDisplay:10.37,2013-02-10 12:28:00,
2013-02-10 07:33:00,63.0,60.0,30.22,ESE,120,2.0,4.6,90,0.00,,,0.00,14.0,WeatherDisplay:10.37,2013-02-10 12:33:00,
2013-02-10 07:38:00,63.1,60.1,30.22,East,86,2.3,4.6,90,0.00,,,0.00,21.0,WeatherDisplay:10.37,2013-02-10 12:38:00,
2013-02-10 07:43:00,63.2,60.2,30.22,SSE,150,1.7,3.5,90,0.00,,,0.00,28.0,WeatherDisplay:10.37,2013-02-10 12:43:00,
2013-02-10 07:48:00,63.3,60.3,30.22,ENE,73,4.3,9.2,90,0.00,,,0.00,32.0,WeatherDisplay:10.37,2013-02-10 12:48:00,
2013-02-10 07:53:00,63.4,60.1,30.22,ENE,61,3.6,5.8,89,0.00,,,0.00,40.0,WeatherDisplay:10.37,2013-02-10 12:53:00,
2013-02-10 07:58:00,63.5,60.2,30.22,East,90,3.8,9.2,89,0.00,,,0.00,33.0,WeatherDisplay:10.37,2013-02-10 12:58:00,
2013-02-10 08:03:00,63.5,60.2,30.22,ENE,67,3.8,8.1,89,0.00,CLR,,0.00,76.0,WeatherDisplay:10.37,2013-02-10 13:03:00,
2013-02-10 08:08:00,63.7,60.4,30.22,East,85,3.1,6.9,89,0.00,CLR,,0.00,65.0,WeatherDisplay:10.37,2013-02-10 13:08:00,
2013-02-10 08:13:00,63.8,60.2,30.22,East,99,2.2,6.0,88,0.00,CLR,,0.00,65.0,WeatherDisplay:10.37,2013-02-10 13:13:00,
2013-02-10 08:18:00,64.0,60.4,30.22,ESE,113,3.5,6.9,88,0.00,CLR,,0.00,51.0,WeatherDisplay:10.37,2013-02-10 13:18:00,
2013-02-10 08:23:00,64.0,60.4,30.22,ENE,76,4.5,8.1,88,0.00,CLR,,0.00,58.0,WeatherDisplay:10.37,2013-02-10 13:23:00,
2013-02-10 08:28:00,64.1,60.5,30.23,North,5,0.6,2.3,88,0.00,CLR,,0.00,72.0,WeatherDisplay:10.37,2013-02-10 13:28:00,
2013-02-10 08:33:00,64.4,60.4,30.23,East,90,4.6,9.2,87,0.00,CLR,,0.00,169.0,WeatherDisplay:10.37,2013-02-10 13:33:00,
2013-02-10 08:38:00,64.9,60.9,30.23,ESE,107,2.1,4.6,87,0.00,CLR,,0.00,236.0,WeatherDisplay:10.37,2013-02-10 13:38:00,
2013-02-10 08:43:00,65.3,61.0,30.24,ESE,122,2.1,3.5,86,0.00,CLR,,0.00,149.0,WeatherDisplay:10.37,2013-02-10 13:43:00,
2013-02-10 08:48:00,65.5,61.2,30.24,ESE,109,2.0,7.0,86,0.00,CLR,,0.00,269.0,WeatherDisplay:10.37,2013-02-10 13:48:00,
2013-02-10 08:53:00,65.9,61.3,30.24,ENE,70,1.3,4.6,85,0.00,CLR,,0.00,279.0,WeatherDisplay:10.37,2013-02-10 13:53:00,
2013-02-10 08:58:00,66.2,61.2,30.24,SE,144,1.3,6.0,84,0.00,CLR,,0.00,123.0,WeatherDisplay:10.37,2013-02-10 13:58:00,
2013-02-10 09:03:00,66.0,61.0,30.25,ESE,117,1.4,3.5,84,0.00,OVC,,0.00,206.0,WeatherDisplay:10.37,2013-02-10 14:03:00,
2013-02-10 09:08:00,66.2,61.2,30.25,East,90,3.0,6.9,84,0.00,OVC,,0.00,311.0,WeatherDisplay:10.37,2013-02-10 14:08:00,
2013-02-10 09:13:00,66.3,61.3,30.25,East,94,2.3,4.6,84,0.00,OVC,,0.00,139.0,WeatherDisplay:10.37,2013-02-10 14:13:00,
2013-02-10 09:18:00,66.3,61.3,30.25,ESE,121,1.0,3.5,84,0.00,OVC,,0.00,151.0,WeatherDisplay:10.37,2013-02-10 14:18:00,
2013-02-10 09:23:00,66.5,61.2,30.25,ENE,73,2.3,5.8,83,0.00,OVC,,0.00,163.0,WeatherDisplay:10.37,2013-02-10 14:23:00,
2013-02-10 09:28:00,66.5,61.2,30.26,ESE,102,3.7,10.4,83,0.00,OVC,,0.00,404.0,WeatherDisplay:10.37,2013-02-10 14:28:00,
2013-02-10 09:33:00,67.0,61.7,30.25,East,94,5.1,11.5,83,0.00,OVC,,0.00,397.0,WeatherDisplay:10.37,2013-02-10 14:33:00,
2013-02-10 09:38:00,67.8,61.8,30.25,East,98,2.4,6.9,81,0.00,OVC,,0.00,410.0,WeatherDisplay:10.37,2013-02-10 14:38:00,
2013-02-10 09:43:00,68.6,62.2,30.25,NE,47,3.5,8.1,80,0.00,OVC,,0.00,424.0,WeatherDisplay:10.37,2013-02-10 14:43:00,
2013-02-10 09:48:00,69.0,61.9,30.26,ESE,112,3.5,6.9,78,0.00,OVC,,0.00,441.0,WeatherDisplay:10.37,2013-02-10 14:48:00,
2013-02-10 09:53:00,69.6,62.4,30.25,ESE,117,3.7,9.2,78,0.00,OVC,,0.00,454.0,WeatherDisplay:10.37,2013-02-10 14:53:00,
2013-02-10 09:58:00,70.1,62.6,30.25,ESE,116,4.5,11.5,77,0.00,OVC,,0.00,466.0,WeatherDisplay:10.37,2013-02-10 14:58:00,
2013-02-10 10:03:00,70.3,62.0,30.26,SE,137,5.4,10.4,75,0.00,OVC,,0.00,476.0,WeatherDisplay:10.37,2013-02-10 15:03:00,
2013-02-10 10:08:00,70.7,62.4,30.26,SE,141,6.3,10.4,75,0.00,OVC,,0.00,492.0,WeatherDisplay:10.37,2013-02-10 15:08:00,
2013-02-10 10:13:00,70.9,62.2,30.26,East,91,5.9,11.5,74,0.00,OVC,,0.00,510.0,WeatherDisplay:10.37,2013-02-10 15:13:00,
2013-02-10 10:18:00,71.2,62.5,30.26,ENE,78,3.9,4.6,74,0.00,OVC,,0.00,520.0,WeatherDisplay:10.37,2013-02-10 15:18:00,
2013-02-10 10:23:00,71.7,62.6,30.26,East,92,3.6,10.4,73,0.00,OVC,,0.00,533.0,WeatherDisplay:10.37,2013-02-10 15:23:00,
2013-02-10 10:28:00,71.9,62.8,30.26,NNE,24,3.9,5.8,73,0.00,OVC,,0.00,541.0,WeatherDisplay:10.37,2013-02-10 15:28:00,
2013-02-10 10:33:00,72.5,63.0,30.26,SSE,151,4.7,6.9,72,0.00,OVC,,0.00,555.0,WeatherDisplay:10.37,2013-02-10 15:33:00,
2013-02-10 10:38:00,72.8,62.8,30.25,ESE,109,4.1,10.4,71,0.00,OVC,,0.00,566.0,WeatherDisplay:10.37,2013-02-10 15:38:00,
2013-02-10 10:43:00,73.2,62.8,30.25,ESE,102,4.9,8.1,70,0.00,OVC,,0.00,577.0,WeatherDisplay:10.37,2013-02-10 15:43:00,
2013-02-10 10:48:00,73.7,63.3,30.25,SE,128,6.5,9.2,70,0.00,OVC,,0.00,587.0,WeatherDisplay:10.37,2013-02-10 15:48:00,
2013-02-10 10:53:00,73.9,63.1,30.25,NNE,33,4.8,10.4,69,0.00,OVC,,0.00,598.0,WeatherDisplay:10.37,2013-02-10 15:53:00,
2013-02-10 10:58:00,74.1,63.3,30.25,SE,142,4.3,12.7,69,0.00,OVC,,0.00,608.0,WeatherDisplay:10.37,2013-02-10 15:58:00,
2013-02-10 11:03:00,74.9,63.6,30.25,ESE,119,4.9,8.1,68,0.00,OVC,,0.00,619.0,WeatherDisplay:10.37,2013-02-10 16:03:00,
2013-02-10 11:08:00,74.6,63.8,30.25,ENE,61,4.9,10.0,69,0.00,OVC,,0.00,622.0,WeatherDisplay:10.37,2013-02-10 16:08:00,
2013-02-10 11:13:00,74.8,63.5,30.25,ESE,119,5.7,11.5,68,0.00,OVC,,0.00,622.0,WeatherDisplay:10.37,2013-02-10 16:13:00,
2013-02-10 11:18:00,75.3,64.0,30.24,East,98,2.7,6.9,68,0.00,OVC,,0.00,645.0,WeatherDisplay:10.37,2013-02-10 16:18:00,
2013-02-10 11:23:00,76.0,64.2,30.24,SSE,159,2.8,3.5,67,0.00,OVC,,0.00,652.0,WeatherDisplay:10.37,2013-02-10 16:23:00,
2013-02-10 11:28:00,76.1,63.9,30.25,SE,127,6.5,10.4,66,0.00,OVC,,0.00,661.0,WeatherDisplay:10.37,2013-02-10 16:28:00,
2013-02-10 11:33:00,75.8,63.2,30.25,North,5,4.6,10.4,65,0.00,OVC,,0.00,663.0,WeatherDisplay:10.37,2013-02-10 16:33:00,
2013-02-10 11:38:00,76.2,63.6,30.25,SSE,157,5.5,10.4,65,0.00,OVC,,0.00,670.0,WeatherDisplay:10.37,2013-02-10 16:38:00,
2013-02-10 11:43:00,76.4,63.8,30.24,ESE,109,5.0,12.7,65,0.00,OVC,,0.00,673.0,WeatherDisplay:10.37,2013-02-10 16:43:00,
2013-02-10 11:48:00,76.9,63.8,30.25,ENE,78,5.2,11.5,64,0.00,OVC,,0.00,680.0,WeatherDisplay:10.37,2013-02-10 16:48:00,
2013-02-10 11:53:00,76.9,63.8,30.24,SE,131,2.2,8.0,64,0.00,OVC,,0.00,682.0,WeatherDisplay:10.37,2013-02-10 16:53:00,
2013-02-10 11:58:00,78.0,63.9,30.24,ESE,118,5.8,11.5,62,0.00,OVC,,0.00,684.0,WeatherDisplay:10.37,2013-02-10 16:58:00,
2013-02-10 12:03:00,77.7,63.6,30.24,SSE,153,4.0,11.0,62,0.00,OVC,,0.00,696.0,WeatherDisplay:10.37,2013-02-10 17:03:00,
2013-02-10 12:08:00,77.4,63.4,30.23,SE,142,6.5,8.1,62,0.00,OVC,,0.00,696.0,WeatherDisplay:10.37,2013-02-10 17:08:00,
2013-02-10 12:13:00,77.5,63.5,30.23,SSE,165,5.7,9.2,62,0.00,OVC,,0.00,705.0,WeatherDisplay:10.37,2013-02-10 17:13:00,
2013-02-10 12:18:00,78.2,63.6,30.22,SE,145,7.6,15.0,61,0.00,OVC,,0.00,700.0,WeatherDisplay:10.37,2013-02-10 17:18:00,
2013-02-10 12:23:00,78.5,63.9,30.22,South,170,5.7,8.0,61,0.00,OVC,,0.00,708.0,WeatherDisplay:10.37,2013-02-10 17:23:00,
2013-02-10 12:28:00,78.3,63.7,30.22,South,188,5.5,9.2,61,0.00,OVC,,0.00,708.0,WeatherDisplay:10.37,2013-02-10 17:28:00,
2013-02-10 12:34:00,78.4,63.4,30.22,SE,130,7.0,7.0,60,0.00,OVC,,0.00,705.0,WeatherDisplay:10.37,2013-02-10 17:34:00,
2013-02-10 12:39:00,78.7,63.6,30.22,ESE,118,6.3,10.4,60,0.00,OVC,,0.00,707.0,WeatherDisplay:10.37,2013-02-10 17:39:00,
2013-02-10 12:44:00,78.7,63.6,30.21,East,87,6.9,11.0,60,0.00,OVC,,0.00,703.0,WeatherDisplay:10.37,2013-02-10 17:44:00,
2013-02-10 12:49:00,79.1,64.0,30.21,East,99,1.4,8.1,60,0.00,OVC,,0.00,707.0,WeatherDisplay:10.37,2013-02-10 17:49:00,
2013-02-10 12:54:00,79.1,63.5,30.20,ESE,117,6.5,6.5,59,0.00,OVC,,0.00,700.0,WeatherDisplay:10.37,2013-02-10 17:54:00,
2013-02-10 12:59:00,79.2,63.6,30.20,SE,134,3.6,9.0,59,0.00,OVC,,0.00,701.0,WeatherDisplay:10.37,2013-02-10 17:59:00,
2013-02-10 13:04:00,79.2,63.6,30.20,SSE,149,3.2,8.1,59,0.00,OVC,,0.00,689.0,WeatherDisplay:10.37,2013-02-10 18:04:00,
2013-02-10 13:09:00,79.9,63.8,30.20,East,86,3.7,11.5,58,0.00,OVC,,0.00,626.0,WeatherDisplay:10.37,2013-02-10 18:09:00,
2013-02-10 13:14:00,79.4,62.8,30.20,SE,134,6.6,11.5,57,0.00,OVC,,0.00,700.0,WeatherDisplay:10.37,2013-02-10 18:14:00,
2013-02-10 13:19:00,79.8,63.7,30.19,SSE,152,4.7,8.1,58,0.00,OVC,,0.00,710.0,WeatherDisplay:10.37,2013-02-10 18:19:00,
2013-02-10 13:24:00,80.6,63.5,30.19,SSE,157,5.2,8.1,56,0.00,OVC,,0.00,700.0,WeatherDisplay:10.37,2013-02-10 18:24:00,
2013-02-10 13:29:00,80.2,63.1,30.19,East,88,5.0,11.5,56,0.00,OVC,,0.00,693.0,WeatherDisplay:10.37,2013-02-10 18:29:00,
2013-02-10 13:34:00,80.2,63.1,30.18,NE,55,2.2,3.5,56,0.00,OVC,,0.00,756.0,WeatherDisplay:10.37,2013-02-10 18:34:00,
2013-02-10 13:39:00,80.5,63.4,30.18,NE,42,5.3,11.5,56,0.00,OVC,,0.00,710.0,WeatherDisplay:10.37,2013-02-10 18:39:00,
2013-02-10 13:44:00,80.0,62.9,30.18,East,92,4.4,9.2,56,0.00,OVC,,0.00,694.0,WeatherDisplay:10.37,2013-02-10 18:44:00,
2013-02-10 13:49:00,80.3,62.7,30.18,ENE,61,6.5,11.5,55,0.00,OVC,,0.00,701.0,WeatherDisplay:10.37,2013-02-10 18:49:00,
2013-02-10 13:54:00,80.7,63.5,30.17,SSE,156,3.5,6.9,56,0.00,OVC,,0.00,700.0,WeatherDisplay:10.37,2013-02-10 18:54:00,
2013-02-10 13:59:00,80.9,63.2,30.17,ESE,106,6.5,11.5,55,0.00,OVC,,0.00,671.0,WeatherDisplay:10.37,2013-02-10 18:59:00,
2013-02-10 14:04:00,80.2,63.1,30.17,North,5,5.5,10.4,56,0.00,OVC,,0.00,183.0,WeatherDisplay:10.37,2013-02-10 19:04:00,
2013-02-10 14:09:00,79.3,62.7,30.17,NNW,338,3.7,6.9,57,0.00,OVC,,0.00,216.0,WeatherDisplay:10.37,2013-02-10 19:09:00,
2013-02-10 14:14:00,79.7,63.1,30.17,SSE,166,7.8,11.5,57,0.00,OVC,,0.00,666.0,WeatherDisplay:10.37,2013-02-10 19:14:00,
2013-02-10 14:19:00,80.2,62.6,30.17,SSW,194,7.6,13.8,55,0.00,OVC,,0.00,629.0,WeatherDisplay:10.37,2013-02-10 19:19:00,
2013-02-10 14:24:00,80.6,62.9,30.16,ESE,115,5.3,9.2,55,0.00,OVC,,0.00,628.0,WeatherDisplay:10.37,2013-02-10 19:24:00,
2013-02-10 14:29:00,81.1,62.9,30.16,ENE,61,3.1,5.0,54,0.00,OVC,,0.00,633.0,WeatherDisplay:10.37,2013-02-10 19:29:00,
2013-02-10 14:34:00,81.2,62.4,30.15,SE,126,5.1,9.2,53,0.00,OVC,,0.00,629.0,WeatherDisplay:10.37,2013-02-10 19:34:00,
2013-02-10 14:39:00,81.6,62.8,30.16,SSE,160,3.7,6.9,53,0.00,OVC,,0.00,624.0,WeatherDisplay:10.37,2013-02-10 19:39:00,
2013-02-10 14:44:00,81.4,62.1,30.16,ENE,65,3.6,9.2,52,0.00,OVC,,0.00,606.0,WeatherDisplay:10.37,2013-02-10 19:44:00,
2013-02-10 14:49:00,81.0,62.3,30.16,SSE,150,4.1,7.0,53,0.00,OVC,,0.00,599.0,WeatherDisplay:10.37,2013-02-10 19:49:00,
2013-02-10 14:54:00,81.7,62.4,30.15,NNE,26,3.7,8.0,52,0.00,OVC,,0.00,598.0,WeatherDisplay:10.37,2013-02-10 19:54:00,
2013-02-10 14:59:00,81.1,62.3,30.15,ENE,71,2.5,3.5,53,0.00,OVC,,0.00,559.0,WeatherDisplay:10.37,2013-02-10 19:59:00,
2013-02-10 15:04:00,81.6,62.8,30.15,East,87,3.5,4.6,53,0.00,OVC,,0.00,550.0,WeatherDisplay:10.37,2013-02-10 20:04:00,
2013-02-10 15:09:00,81.5,62.2,30.15,NNE,25,2.3,8.1,52,0.00,OVC,,0.00,545.0,WeatherDisplay:10.37,2013-02-10 20:09:00,
2013-02-10 15:14:00,82.0,61.5,30.15,East,84,4.4,8.1,50,0.00,OVC,,0.00,533.0,WeatherDisplay:10.37,2013-02-10 20:14:00,
2013-02-10 15:19:00,81.4,61.5,30.15,ESE,112,4.2,8.1,51,0.00,OVC,,0.00,519.0,WeatherDisplay:10.37,2013-02-10 20:19:00,
2013-02-10 15:24:00,81.4,62.1,30.15,ENE,77,2.0,4.0,52,0.00,OVC,,0.00,130.0,WeatherDisplay:10.37,2013-02-10 20:24:00,
2013-02-10 15:29:00,80.5,61.8,30.15,ENE,71,2.9,6.9,53,0.00,OVC,,0.00,534.0,WeatherDisplay:10.37,2013-02-10 20:29:00,
2013-02-10 15:34:00,80.6,61.3,30.15,SE,142,1.5,6.9,52,0.00,OVC,,0.00,146.0,WeatherDisplay:10.37,2013-02-10 20:34:00,
2013-02-10 15:39:00,80.9,61.6,30.15,SE,142,4.9,6.9,52,0.00,OVC,,0.00,130.0,WeatherDisplay:10.37,2013-02-10 20:39:00,
2013-02-10 15:44:00,80.3,61.1,30.15,SE,142,4.0,9.0,52,0.00,OVC,,0.00,192.0,WeatherDisplay:10.37,2013-02-10 20:44:00,
2013-02-10 15:49:00,80.3,61.6,30.15,SE,133,3.8,6.9,53,0.00,OVC,,0.00,158.0,WeatherDisplay:10.37,2013-02-10 20:49:00,
2013-02-10 15:54:00,80.3,61.1,30.15,SE,138,2.1,4.6,52,0.00,OVC,,0.00,135.0,WeatherDisplay:10.37,2013-02-10 20:54:00,
2013-02-10 15:59:00,79.8,61.1,30.15,SSE,147,1.7,3.5,53,0.00,OVC,,0.00,167.0,WeatherDisplay:10.37,2013-02-10 20:59:00,
2013-02-10 16:04:00,80.6,61.3,30.15,SE,146,0.7,3.5,52,0.00,OVC,,0.00,181.0,WeatherDisplay:10.37,2013-02-10 21:04:00,
2013-02-10 16:09:00,80.6,61.9,30.15,SSW,200,2.0,4.6,53,0.00,OVC,,0.00,446.0,WeatherDisplay:10.37,2013-02-10 21:09:00,
2013-02-10 16:14:00,80.5,63.9,30.15,SSW,200,1.8,4.6,57,0.00,OVC,,0.00,401.0,WeatherDisplay:10.37,2013-02-10 21:14:00,
2013-02-10 16:19:00,80.4,62.2,30.15,WSW,238,3.0,4.0,54,0.00,OVC,,0.00,385.0,WeatherDisplay:10.37,2013-02-10 21:19:00,
2013-02-10 16:24:00,79.7,63.1,30.15,SSW,206,1.8,4.6,57,0.00,OVC,,0.00,373.0,WeatherDisplay:10.37,2013-02-10 21:24:00,
2013-02-10 16:29:00,78.6,63.1,30.16,SW,215,2.3,3.5,59,0.00,OVC,,0.00,160.0,WeatherDisplay:10.37,2013-02-10 21:29:00,
2013-02-10 16:34:00,78.9,63.8,30.16,SSW,213,3.7,6.9,60,0.00,OVC,,0.00,336.0,WeatherDisplay:10.37,2013-02-10 21:34:00,
2013-02-10 16:39:00,79.2,64.1,30.15,SSW,192,4.6,5.8,60,0.00,OVC,,0.00,348.0,WeatherDisplay:10.37,2013-02-10 21:39:00,
2013-02-10 16:44:00,79.6,64.0,30.16,WSW,250,1.9,6.0,59,0.00,OVC,,0.00,318.0,WeatherDisplay:10.37,2013-02-10 21:44:00,
2013-02-10 16:49:00,79.5,63.9,30.16,West,272,2.0,3.5,59,0.00,OVC,,0.00,292.0,WeatherDisplay:10.37,2013-02-10 21:49:00,
2013-02-10 16:54:00,79.3,63.7,30.16,WSW,242,2.2,3.5,59,0.00,OVC,,0.00,269.0,WeatherDisplay:10.37,2013-02-10 21:54:00,
2013-02-10 16:59:00,78.9,63.4,30.16,South,188,2.2,6.0,59,0.00,OVC,,0.00,114.0,WeatherDisplay:10.37,2013-02-10 21:59:00,
2013-02-10 17:04:00,78.2,63.2,30.16,SW,215,3.1,6.9,60,0.00,,,0.00,107.0,WeatherDisplay:10.37,2013-02-10 22:04:00,
2013-02-10 17:09:00,77.5,63.5,30.16,SSW,200,0.7,3.5,62,0.00,,,0.00,149.0,WeatherDisplay:10.37,2013-02-10 22:09:00,
2013-02-10 17:14:00,77.1,63.1,30.16,SSW,194,1.0,3.5,62,0.00,,,0.00,70.0,WeatherDisplay:10.37,2013-02-10 22:14:00,
2013-02-10 17:19:00,76.7,63.2,30.16,SW,217,3.6,3.6,63,0.00,CLR,,0.00,130.0,WeatherDisplay:10.37,2013-02-10 22:19:00,
2013-02-10 17:24:00,76.6,63.5,30.16,SSW,200,0.9,3.5,64,0.00,CLR,,0.00,90.0,WeatherDisplay:10.37,2013-02-10 22:24:00,
2013-02-10 17:29:00,76.3,63.7,30.16,South,172,3.2,4.6,65,0.00,CLR,,0.00,98.0,WeatherDisplay:10.37,2013-02-10 22:29:00,
2013-02-10 17:34:00,76.1,63.5,30.16,SSW,208,1.1,3.5,65,0.00,CLR,,0.00,81.0,WeatherDisplay:10.37,2013-02-10 22:34:00,
2013-02-10 17:39:00,75.8,63.6,30.16,South,177,2.4,5.0,66,0.00,CLR,,0.00,60.0,WeatherDisplay:10.37,2013-02-10 22:39:00,
2013-02-10 17:44:00,75.0,63.3,30.16,South,176,2.8,3.5,67,0.00,SCT,,0.00,53.0,WeatherDisplay:10.37,2013-02-10 22:44:00,
2013-02-10 17:49:00,74.7,63.4,30.16,South,186,4.0,4.6,68,0.00,BKN,,0.00,40.0,WeatherDisplay:10.37,2013-02-10 22:49:00,
2013-02-10 17:54:00,74.4,63.1,30.16,SSW,198,2.4,3.5,68,0.00,BKN,,0.00,26.0,WeatherDisplay:10.37,2013-02-10 22:54:00,
2013-02-10 17:59:00,74.0,63.6,30.16,West,259,0.9,2.0,70,0.00,BKN,,0.00,18.0,WeatherDisplay:10.37,2013-02-10 22:59:00,
2013-02-10 18:04:00,73.6,63.2,30.16,South,186,0.1,1.1,70,0.00,BKN,,0.00,14.0,WeatherDisplay:10.37,2013-02-10 23:04:00,
2013-02-10 18:09:00,73.2,63.2,30.16,SSW,197,2.0,4.0,71,0.00,BKN,,0.00,11.0,WeatherDisplay:10.37,2013-02-10 23:09:00,
2013-02-10 18:14:00,72.9,63.3,30.16,SSW,203,0.2,2.3,72,0.00,,,0.00,7.0,WeatherDisplay:10.37,2013-02-10 23:14:00,
2013-02-10 18:19:00,72.6,63.4,30.16,South,184,0.0,1.1,73,0.00,,,0.00,0.0,WeatherDisplay:10.37,2013-02-10 23:19:00,
2013-02-10 18:24:00,72.5,63.7,30.16,WSW,240,1.1,3.5,74,0.00,,,0.00,0.0,WeatherDisplay:10.37,2013-02-10 23:24:00,
2013-02-10 18:29:00,72.2,63.4,30.16,SW,220,1.1,2.3,74,0.00,,,0.00,0.0,WeatherDisplay:10.37,2013-02-10 23:29:00,
2013-02-10 18:34:00,72.2,63.8,30.17,SW,219,0.1,2.3,75,0.00,,,0.00,0.0,WeatherDisplay:10.37,2013-02-10 23:34:00,
2013-02-10 18:39:00,72.1,63.7,30.17,SW,219,0.0,0.0,75,0.00,,,0.00,0.0,WeatherDisplay:10.37,2013-02-10 23:39:00,
2013-02-10 18:44:00,72.0,64.0,30.17,SW,219,0.3,1.0,76,0.00,,,0.00,0.0,WeatherDisplay:10.37,2013-02-10 23:44:00,
2013-02-10 18:49:00,71.9,63.9,30.17,SW,219,0.0,0.0,76,0.00,,,0.00,0.0,WeatherDisplay:10.37,2013-02-10 23:49:00,
2013-02-10 18:54:00,71.6,64.0,30.17,SW,219,0.0,1.1,77,0.00,,,0.00,0.0,WeatherDisplay:10.37,2013-02-10 23:54:00,
2013-02-10 18:59:00,71.5,63.9,30.17,SW,219,0.1,2.3,77,0.00,,,0.00,0.0,WeatherDisplay:10.37,2013-02-10 23:59:00,
2013-02-10 19:04:00,71.5,63.9,30.18,SSW,202,1.3,2.3,77,0.00,,,0.00,0.0,WeatherDisplay:10.37,2013-02-11 00:04:00,
2013-02-10 19:09:00,71.5,63.9,30.18,SSW,196,2.3,3.5,77,0.00,,,0.00,0.0,WeatherDisplay:10.37,2013-02-11 00:09:00,
2013-02-10 19:14:00,71.5,64.3,30.18,South,191,2.3,4.6,78,0.00,,,0.00,0.0,WeatherDisplay:10.37,2013-02-11 00:14:00,
2013-02-10 19:19:00,71.4,64.2,30.18,SSW,196,0.8,2.0,78,0.00,,,0.00,0.0,WeatherDisplay:10.37,2013-02-11 00:19:00,
2013-02-10 19:24:00,71.4,64.2,30.18,South,171,2.0,3.5,78,0.00,,,0.00,0.0,WeatherDisplay:10.37,2013-02-11 00:24:00,
2013-02-10 19:29:00,71.4,64.5,30.18,SSE,148,1.6,4.0,79,0.00,,,0.00,0.0,WeatherDisplay:10.37,2013-02-11 00:29:00,
2013-02-10 19:34:00,71.3,64.4,30.18,SSE,161,1.2,3.5,79,0.00,,,0.00,0.0,WeatherDisplay:10.37,2013-02-11 00:34:00,
2013-02-10 19:39:00,71.2,64.7,30.18,SSE,155,1.3,3.5,80,0.00,,,0.00,0.0,WeatherDisplay:10.37,2013-02-11 00:39:00,
2013-02-10 19:44:00,71.2,64.7,30.18,SSE,163,0.2,2.3,80,0.00,,,0.00,0.0,WeatherDisplay:10.37,2013-02-11 00:44:00,
2013-02-10 19:50:00,71.2,65.1,30.19,SSE,165,2.3,3.5,81,0.00,,,0.00,0.0,WeatherDisplay:10.37,2013-02-11 00:50:00,
2013-02-10 19:55:00,71.3,65.2,30.19,South,184,2.0,3.0,81,0.00,,,0.00,0.0,WeatherDisplay:10.37,2013-02-11 00:55:00,
2013-02-10 20:00:00,71.2,65.1,30.19,South,182,0.1,1.1,81,0.00,,,0.00,0.0,WeatherDisplay:10.37,2013-02-11 01:00:00,
2013-02-10 20:05:00,71.1,65.0,30.19,SSE,155,0.6,3.5,81,0.00,,,0.00,0.0,WeatherDisplay:10.37,2013-02-11 01:05:00,
2013-02-10 20:10:00,70.9,64.8,30.19,SSE,155,1.3,1.3,81,0.00,,,0.00,0.0,WeatherDisplay:10.37,2013-02-11 01:10:00,
2013-02-10 20:15:00,70.9,64.8,30.19,South,171,1.1,3.5,81,0.00,,,0.00,0.0,WeatherDisplay:10.37,2013-02-11 01:15:00,
2013-02-10 20:20:00,70.8,64.7,30.19,SSE,153,0.8,4.0,81,0.00,,,0.00,0.0,WeatherDisplay:10.37,2013-02-11 01:20:00,
2013-02-10 20:25:00,70.8,64.3,30.19,SSE,158,2.6,6.9,80,0.00,,,0.00,0.0,WeatherDisplay:10.37,2013-02-11 01:25:00,
2013-02-10 20:30:00,70.9,64.1,30.20,SSE,157,1.3,4.6,79,0.00,,,0.00,0.0,WeatherDisplay:10.37,2013-02-11 01:30:00,
2013-02-10 20:35:00,71.0,63.8,30.20,SSE,157,3.7,8.1,78,0.00,,,0.00,0.0,WeatherDisplay:10.37,2013-02-11 01:35:00,
2013-02-10 20:40:00,71.0,63.8,30.20,SSE,148,2.0,3.5,78,0.00,,,0.00,0.0,WeatherDisplay:10.37,2013-02-11 01:40:00,
2013-02-10 20:45:00,71.0,63.4,30.20,SSE,157,3.6,6.9,77,0.00,,,0.00,0.0,WeatherDisplay:10.37,2013-02-11 01:45:00,
2013-02-10 20:50:00,71.0,63.1,30.20,SSE,160,4.6,11.5,76,0.00,,,0.00,0.0,WeatherDisplay:10.37,2013-02-11 01:50:00,
2013-02-10 20:55:00,71.0,63.1,30.20,SSE,156,2.7,4.0,76,0.00,,,0.00,0.0,WeatherDisplay:10.37,2013-02-11 01:55:00,
2013-02-10 21:00:00,71.0,62.7,30.20,SSE,148,1.2,3.5,75,0.00,,,0.00,0.0,WeatherDisplay:10.37,2013-02-11 02:00:00,
2013-02-10 21:05:00,70.8,62.5,30.20,SSE,161,2.2,3.5,75,0.00,CLR,,0.00,0.0,WeatherDisplay:10.37,2013-02-11 02:05:00,
2013-02-10 21:10:00,70.6,62.3,30.20,SE,142,1.0,3.5,75,0.00,CLR,,0.00,0.0,WeatherDisplay:10.37,2013-02-11 02:10:00,
2013-02-10 21:15:00,70.6,62.3,30.21,SE,138,0.6,2.3,75,0.00,CLR,,0.00,0.0,WeatherDisplay:10.37,2013-02-11 02:15:00,
2013-02-10 21:20:00,70.4,62.1,30.21,South,178,1.9,3.5,75,0.00,CLR,,0.00,0.0,WeatherDisplay:10.37,2013-02-11 02:20:00,
2013-02-10 21:25:00,70.3,62.0,30.20,SSE,155,5.0,11.5,75,0.00,CLR,,0.00,0.0,WeatherDisplay:10.37,2013-02-11 02:25:00,
2013-02-10 21:30:00,70.2,61.9,30.20,SSE,159,3.1,4.6,75,0.00,CLR,,0.00,0.0,WeatherDisplay:10.37,2013-02-11 02:30:00,
2013-02-10 21:35:00,70.1,61.8,30.20,South,169,1.6,4.6,75,0.00,CLR,,0.00,0.0,WeatherDisplay:10.37,2013-02-11 02:35:00,
2013-02-10 21:40:00,69.9,62.0,30.20,SSE,156,1.2,3.5,76,0.00,CLR,,0.00,0.0,WeatherDisplay:10.37,2013-02-11 02:40:00,
2013-02-10 21:45:00,69.7,61.8,30.20,SSE,160,5.2,9.2,76,0.00,CLR,,0.00,0.0,WeatherDisplay:10.37,2013-02-11 02:45:00,
2013-02-10 21:50:00,69.6,61.7,30.20,SE,128,1.5,3.5,76,0.00,CLR,,0.00,0.0,WeatherDisplay:10.37,2013-02-11 02:50:00,
2013-02-10 21:55:00,69.5,62.0,30.20,SSE,165,5.3,8.1,77,0.00,CLR,,0.00,0.0,WeatherDisplay:10.37,2013-02-11 02:55:00,
2013-02-10 22:00:00,69.4,61.9,30.20,SE,139,4.8,11.5,77,0.00,CLR,,0.00,0.0,WeatherDisplay:10.37,2013-02-11 03:00:00,
2013-02-10 22:05:00,69.3,61.8,30.20,SSE,159,1.2,3.5,77,0.00,,,0.00,0.0,WeatherDisplay:10.37,2013-02-11 03:05:00,
2013-02-10 22:10:00,69.1,61.6,30.20,SSE,151,2.8,5.8,77,0.00,,,0.00,0.0,WeatherDisplay:10.37,2013-02-11 03:10:00,
2013-02-10 22:15:00,69.1,61.6,30.20,South,183,3.0,4.6,77,0.00,,,0.00,0.0,WeatherDisplay:10.37,2013-02-11 03:15:00,
2013-02-10 22:20:00,69.1,61.6,30.20,East,91,2.2,8.1,77,0.00,,,0.00,0.0,WeatherDisplay:10.37,2013-02-11 03:20:00,
2013-02-10 22:25:00,69.1,61.6,30.20,SE,144,7.1,13.8,77,0.00,,,0.00,0.0,WeatherDisplay:10.37,2013-02-11 03:25:00,
2013-02-10 22:30:00,69.2,61.7,30.21,SE,145,5.0,8.1,77,0.00,,,0.00,0.0,WeatherDisplay:10.37,2013-02-11 03:30:00,
2013-02-10 22:35:00,69.2,62.0,30.20,South,177,3.9,4.6,78,0.00,,,0.00,0.0,WeatherDisplay:10.37,2013-02-11 03:35:00,
2013-02-10 22:40:00,69.2,62.0,30.20,SE,132,2.9,4.6,78,0.00,,,0.00,0.0,WeatherDisplay:10.37,2013-02-11 03:40:00,
2013-02-10 22:45:00,69.1,61.9,30.20,SE,124,1.8,3.5,78,0.00,,,0.00,0.0,WeatherDisplay:10.37,2013-02-11 03:45:00,
2013-02-10 22:50:00,68.9,61.8,30.20,East,101,2.8,6.9,78,0.00,,,0.00,0.0,WeatherDisplay:10.37,2013-02-11 03:50:00,
2013-02-10 22:55:00,68.7,61.9,30.20,East,86,3.6,8.0,79,0.00,,,0.00,0.0,WeatherDisplay:10.37,2013-02-11 03:55:00,
2013-02-10 23:00:00,68.5,61.7,30.20,East,97,3.0,3.5,79,0.00,,,0.00,0.0,WeatherDisplay:10.37,2013-02-11 04:00:00,
2013-02-10 23:05:00,68.3,61.9,30.20,SSE,165,2.0,4.6,80,0.00,,,0.00,0.0,WeatherDisplay:10.37,2013-02-11 04:05:00,
2013-02-10 23:10:00,68.1,61.7,30.20,SE,143,2.2,8.0,80,0.00,,,0.00,0.0,WeatherDisplay:10.37,2013-02-11 04:10:00,
2013-02-10 23:15:00,68.0,61.9,30.20,East,91,0.7,2.3,81,0.00,,,0.00,0.0,WeatherDisplay:10.37,2013-02-11 04:15:00,
2013-02-10 23:20:00,67.7,61.7,30.20,SSW,205,1.0,3.5,81,0.00,,,0.00,0.0,WeatherDisplay:10.37,2013-02-11 04:20:00,
2013-02-10 23:25:00,67.5,61.8,30.20,ESE,103,2.5,4.6,82,0.00,,,0.00,0.0,WeatherDisplay:10.37,2013-02-11 04:25:00,
2013-02-10 23:30:00,67.4,61.7,30.20,ESE,111,3.3,8.0,82,0.00,,,0.00,0.0,WeatherDisplay:10.37,2013-02-11 04:30:00,
2013-02-10 23:35:00,67.3,62.0,30.19,ESE,117,2.3,4.6,83,0.00,,,0.00,0.0,WeatherDisplay:10.37,2013-02-11 04:35:00,
2013-02-10 23:40:00,67.2,61.9,30.19,SSE,155,2.9,3.5,83,0.00,,,0.00,0.0,WeatherDisplay:10.37,2013-02-11 04:40:00,
2013-02-10 23:45:00,67.1,61.8,30.19,SSE,157,1.4,3.5,83,0.00,,,0.00,0.0,WeatherDisplay:10.37,2013-02-11 04:45:00,
2013-02-10 23:50:00,67.0,62.0,30.19,SE,142,4.6,11.5,84,0.00,,,0.00,0.0,WeatherDisplay:10.37,2013-02-11 04:50:00,
2013-02-10 23:55:00,67.0,62.0,30.19,South,169,1.9,5.8,84,0.00,,,0.00,0.0,WeatherDisplay:10.37,2013-02-11 04:55:00,